Back to catalog

KUIPER-00386

AliveCommunicationsLEO
NORAD 68921·PAYLOAD·🇺🇸 United States

Launched Apr 30, 2026 from Guiana Space Centre

Loading…

Next Passes (next 24 hours)

TLE

FreshSource: CelesTrak SupGP

Epoch: Sep 14, 2026, 13:11 UTC

1 68921C 26098C   26257.54978009  .00002119  00000+0  27737-3 0  2573
2 68921  51.9000  17.9952 0000469 105.9665 334.5790 14.79932408    16

Track KUIPER-00386 in real time with AllMySat

Download on the App Store